Find Starlink 32782

NORAD ID: 62821 Int'l Des: 2025-018 Owner: SPXS Country: US Constellation: starlink operational
LEOCIRCULAR

当前视图

正在加载3D地球...

About Starlink 32782

Starlink 32782 (NORAD 62821) is a starlink constellation satellite (v2 mini) launched Jan 24, 2025 by SPXS of US. It operates in LEO, CIRCULAR orbit with a mass of 730.00 kg.

即将过境

Passes for default location (London). Set your location on the main map for personalized predictions.

高度历史

Loading altitude history...

两行轨道根数

1 62821U 25018R 26263.03270100 .00016396 00000-0 49517-3 0 9991
2 62821 53.1590 124.0214 0000711 76.5483 283.5598 15.34409299 92973
Epoch: Sep 20, 2026 • Age: 20 hours

当前状态

高度 468.6 km
远地点 / 近地点 N/A
速度 7.63 km/s
星下点 -21.02°S, 148.81°E
发射日期 Jan 24, 2025
运行时间 1.6 years
类型 internet

技术详情

分类 Payload
质量 730.00 kg
干质量 700.00 kg
长度 0.30 m
跨度 29.00 m
形状 ? Box + pan
制造商 SPXS
平台类型 Starlink V2M
阶段状态 In Orbit
所有者/国家 SPXS/US

Most Searched